Regional Weather Roundup
Issued by NWS

Home | Current Version | Previous Version | Text Only | Print | Product List | Glossary On
Versions: 1 2 3 4 5 6 7 8 9 10 11 12 13 14 15 16 17 18 19 20 21 22 23 24 25 26 27 28 29 30 31 32 33 34 35 36 37 38 39 40 41 42 43 44 45 46 47 48 49 50
000
ASUS44 KFWD 250603
RWRTX
NORTH TEXAS HOURLY WEATHER ROUNDUP
NATIONAL WEATHER SERVICE FORT WORTH TX
100 AM CDT MON SEP 25 2017

NOTE: "FAIR" INDICATES FEW OR NO CLOUDS BELOW 12,000 FEET WITH NO
SIGNIFICANT WEATHER AND/OR OBSTRUCTIONS TO VISIBILITY.

TXZ118-119-250700-
DALLAS/FORT WORTH METROPLEX

CITY           SKY/WX    TMP DP  RH WIND       PRES   REMARKS
DFW AIRPORT    PTCLDY    80  67  64 SE9       29.88S
6HR MIN TEMP:  79; 6HR MAX TEMP:  89;

DALLAS LOVE    PTCLDY    81  66  60 S12       29.89S
6HR MIN TEMP:  80; 6HR MAX TEMP:  89;

FTW MEACHAM    CLEAR     80  68  66 SE12      29.88S
6HR MIN TEMP:  80; 6HR MAX TEMP:  89;

DAL-EXECUTIVE  CLEAR     76  68  76 SE5       29.89S
6HR MIN TEMP:  76; 6HR MAX TEMP:  89;

FTW-ALLIANCE   CLOUDY    79  67  66 SE12      29.88S
6HR MIN TEMP:  79; 6HR MAX TEMP:  87;

FTW-NAS-JRB    CLOUDY    81  66  60 SE12      29.88F
6HR MIN TEMP:  81; 6HR MAX TEMP:  90;

FTW-SPINKS     CLEAR     76  66  71 SE5       29.90S
6HR MIN TEMP:  76; 6HR MAX TEMP:  88;

ARLINGTON      CLEAR     77  68  73 SE7       29.89F
6HR MIN TEMP:  77; 6HR MAX TEMP:  89;

GRAND PRAIRIE  CLEAR     78  65  64 SE5       29.91S
6HR MIN TEMP:  78; 6HR MAX TEMP:  89;

ADDISON        CLEAR     78  66  65 SE9       29.91S
6HR MIN TEMP:  78; 6HR MAX TEMP:  87;

MESQUITE       CLEAR     72  64  78 SE3       29.90S
6HR MIN TEMP:  71; 6HR MAX TEMP:  86;

LANCASTER      CLEAR     75  64  70 CALM      29.90S
6HR MIN TEMP:  75; 6HR MAX TEMP:  88;

$$

TXZ091>094-102>105-117-120-121-131>134-250700-
NORTH CENTRAL TEXAS

CITY           SKY/WX    TMP DP  RH WIND       PRES   REMARKS
SHRMAN/DENISON CLEAR     76  64  68 SE8       29.91S
6HR MIN TEMP:  75; 6HR MAX TEMP:  85;

GAINESVILLE    CLEAR     74  65  74 E6        29.92S
6HR MIN TEMP:  73; 6HR MAX TEMP:  83;

BOWIE          PTCLDY    74  65  72 SE3       29.90S
6HR MIN TEMP:  74; 6HR MAX TEMP:  82;

BRIDGEPORT     PTCLDY    77  64  63 S6        29.91R
6HR MIN TEMP:  74; 6HR MAX TEMP:  85;

DECATUR        CLOUDY    78  65  65 SE8       29.89S
6HR MIN TEMP:  78; 6HR MAX TEMP:  85;

DENTON         CLEAR     78  67  68 SE9       29.89S
6HR MIN TEMP:  78; 6HR MAX TEMP:  87;

MCKINNEY       CLEAR     74  67  78 SE3       29.90S
6HR MIN TEMP:  74; 6HR MAX TEMP:  86;

BONHAM         CLEAR     72  65  78 SE6       29.91S
6HR MIN TEMP:  72; 6HR MAX TEMP:  84;

ROCKWALL       CLEAR     74  64  69 SE5       29.90S
6HR MIN TEMP:  74; 6HR MAX TEMP:  85;

TERRELL        CLEAR     73  63  70 SE3       29.90F
6HR MIN TEMP:  73; 6HR MAX TEMP:  85;

WAXAHACHIE     CLEAR     75  67  77 CALM      29.91S
6HR MIN TEMP:  75; 6HR MAX TEMP:  88;

CLEBURNE       CLOUDY    77  70  78 SE8       29.91S
GRANBURY       CLOUDY    81  66  61 SE12G17   29.89S
6HR MIN TEMP:  81; 6HR MAX TEMP:  89;

$$

TXZ083>090-098>101-113>116-127>130-139>142-154-155-250700-
WESTERN NORTH TEXAS

CITY           SKY/WX    TMP DP  RH WIND       PRES   REMARKS
WICHITA FALLS  CLOUDY    77  63  61 SE8       29.87S
6HR MIN TEMP:  77; 6HR MAX TEMP:  84;

WF-KICKAPOO    CLOUDY    78  64  61 SE8       29.89F
6HR MIN TEMP:  78; 6HR MAX TEMP:  84;

VERNON         CLOUDY    75  65  69 S3        29.88S
6HR MIN TEMP:  72; 6HR MAX TEMP:  85;

ABILENE        PTCLDY    73  68  84 SE12      29.89S
6HR MIN TEMP:  72; 6HR MAX TEMP:  78;

ABILENE-DYESS  PTCLDY    73  68  85 S6        29.88S
6HR MIN TEMP:  72; 6HR MAX TEMP:  79; 6HR PCP: TRACE;

BRECKENRIDGE   CLOUDY    77  67  70 S5        29.88S
6HR MIN TEMP:  74; 6HR MAX TEMP:  85;

CISCO          CLOUDY    72  70  94 SE6       29.91S
EASTLAND       CLOUDY    73  69  85 SE3       29.90S
6HR MIN TEMP:  72; 6HR MAX TEMP:  75; 6HR PCP:  0.02;

RANGER         CLOUDY    74  68  81 SE6       29.90S
6HR MIN TEMP:  64; 6HR MAX TEMP:  97;

MINERAL WELLS  CLOUDY    78  64  61 SE8       29.87S
6HR MIN TEMP:  78; 6HR MAX TEMP:  86;

STEPHENVILLE   CLOUDY    77  64  64 SE9       29.92F
6HR MIN TEMP:  77; 6HR MAX TEMP:  85;

COMANCHE       CLOUDY    74  71  89 S6        29.90S
6HR MIN TEMP:  72; 6HR MAX TEMP:  84; 6HR PCP:  0.35;

COLEMAN        CLOUDY    72  68  88 CALM      29.89F
6HR MIN TEMP:  72; 6HR MAX TEMP:  73;

$$

TXZ143>147-156>162-174-175-250700-
CENTRAL TEXAS

CITY           SKY/WX    TMP DP  RH WIND       PRES   REMARKS
WACO           CLEAR     78  69  73 SE10      29.88S
6HR MIN TEMP:  78; 6HR MAX TEMP:  89;

WACO-MCGREGOR  CLEAR     77  69  76 SE9       29.89S
6HR MIN TEMP:  77; 6HR MAX TEMP:  88;

HILLSBORO      CLEAR     77  68  74 SE8       29.89F
6HR MIN TEMP:  77; 6HR MAX TEMP:  89;

CORSICANA      CLEAR     75  68  78 SE6       29.90S
6HR MIN TEMP:  75; 6HR MAX TEMP:  89;

MEXIA          CLEAR     73  68  84 S7        29.89S
6HR MIN TEMP:  73; 6HR MAX TEMP:  86;

HEARNE         CLEAR     74  71  92 CALM      29.89S
CAMERON        CLEAR     75  70  85 S3        29.88S
6HR MIN TEMP:  75; 6HR MAX TEMP:  87;

TEMPLE         CLEAR     77  70  79 SE12      29.89S
6HR MIN TEMP:  77; 6HR MAX TEMP:  87;

KILLEEN        NOT AVBL
FORT HOOD      CLEAR    N/A N/A N/A S7        29.86S
GATESVILLE     CLEAR     75  68  78 SE5       29.91S
HAMILTON       CLOUDY    76  68  74 SE10      29.91R
6HR MIN TEMP:  76; 6HR MAX TEMP:  86;

LAMPASAS       CLOUDY    76  72  87 S7        29.89S
6HR MIN TEMP:  76; 6HR MAX TEMP:  85;

$$

TXZ095>097-106>112-122>126-135>138-148>153-164>167-250700-
EAST TEXAS

CITY           SKY/WX    TMP DP  RH WIND       PRES   REMARKS
PARIS          CLEAR     72  67  84 E7        29.93S
6HR MIN TEMP:  72; 6HR MAX TEMP:  84;

SULPHUR SPRNGS CLEAR     72  66  80 CALM      29.94S
6HR MIN TEMP:  72; 6HR MAX TEMP:  87;

MOUNT PLEASANT CLEAR     71  69  93 CALM      29.92S
6HR MIN TEMP:  70; 6HR MAX TEMP:  80;

GILMER         CLEAR     70  66  88 CALM      29.91S
6HR MIN TEMP:  70; 6HR MAX TEMP:  84;

MINEOLA        CLEAR     68  66  94 CALM      29.91S
TYLER          CLEAR     72  68  87 SE7       29.90S
6HR MIN TEMP:  72; 6HR MAX TEMP:  85;

LONGVIEW       CLEAR     74  70  87 SE5       29.90S
6HR MIN TEMP:  73; 6HR MAX TEMP:  85;

MARSHALL       CLEAR     67  64  90 CALM      29.93S
6HR MIN TEMP:  67; 6HR MAX TEMP:  85;

ATHENS         CLEAR     70  63  78 CALM      29.89S
PALESTINE      CLEAR     74  70  87 E3        29.90F
JACKSONVILLE   CLEAR     74  67  80 S3        29.93S
HENDERSON      CLEAR     69  67  92 CALM      29.92S
6HR MIN TEMP:  69; 6HR MAX TEMP:  84;

CENTER         CLEAR     73  72  95 CALM      29.92S FOG
6HR MIN TEMP:  73; 6HR MAX TEMP:  85;

NACOGDOCHES    CLEAR     70  68  93 CALM      29.91S
6HR MIN TEMP:  69; 6HR MAX TEMP:  81;

LUFKIN         CLEAR     71  70  96 CALM      29.89F
6HR MIN TEMP:  70; 6HR MAX TEMP:  82;

$$

SUPPLEMENTAL OBSERVATIONS (NWS FORT WORTH AREA)

CITY           SKY/WX    TMP DP  RH WIND       PRES   REMARKS
$$

SUPPLEMENTAL OBSERVATIONS (NWS NORMAN AREA)

CITY           SKY/WX    TMP DP  RH WIND       PRES   REMARKS
GOODLETT         N/A     71  65  82 SE6       29.89S
ODELL            N/A     75  67  76 SE8       29.89S
CROWELL          N/A     73  68  86 SE3       29.89S
KNOX CITY        N


USA.gov is the U.S. government's official web portal to all federal, state and local government web resources and services.